| time (UTC) | temp F | wind direction | speed knots | gust knots | rain 1hr in | rain 24hr in | rain mn in | humidity % | barometer mb |
| 20260506222404 | 33 | 37 | 0.9 | 1.7 | 0.00 | 0.00 | 0.00 | 72 | 1012.4 |
| 20260506221904 | 34 | 37 | 0.0 | 0.0 | 0.00 | 0.00 | 0.00 | 71 | 1012.5 |
| 20260506221403 | 34 | 37 | 0.0 | 0.9 | 0.00 | 0.00 | 0.00 | 71 | 1012.4 |
| 20260506220904 | 34 | 37 | 0.9 | 1.7 | 0.00 | 0.00 | 0.00 | 71 | 1012.4 |
| 20260506215903 | 34 | 37 | 0.0 | 0.0 | 0.00 | 0.00 | 0.00 | 72 | 1012.4 |
| 20260506215404 | 35 | 37 | 0.0 | 0.0 | 0.00 | 0.00 | 0.00 | 72 | 1012.4 |
| 20260506214904 | 35 | 37 | 0.9 | 1.7 | 0.00 | 0.00 | 0.00 | 72 | 1012.3 |
| 20260506214403 | 34 | 37 | 0.9 | 1.7 | 0.00 | 0.00 | 0.00 | 71 | 1012.2 |
| 20260506213903 | 35 | 37 | 0.9 | 1.7 | 0.00 | 0.00 | 0.00 | 70 | 1012.2 |
| 20260506213403 | 35 | 37 | 0.0 | 1.7 | 0.00 | 0.00 | 0.00 | 71 | 1012.2 |
| 20260506212904 | 34 | 37 | 1.7 | 2.6 | 0.00 | 0.00 | 0.00 | 70 | 1012.2 |
| 20260506212403 | 35 | 37 | 0.9 | 1.7 | 0.00 | 0.00 | 0.00 | 69 | 1012.2 |
| 20260506211904 | 35 | 37 | 0.9 | 1.7 | 0.00 | 0.00 | 0.00 | 68 | 1012.2 |
| 20260506211404 | 36 | 257 | 0.9 | 1.7 | 0.00 | 0.00 | 0.00 | 68 | 1012.2 |
| 20260506210903 | 36 | 257 | 0.0 | 0.0 | 0.00 | 0.00 | 0.00 | 69 | 1012.2 |
| 20260506210404 | 36 | 257 | 0.0 | 0.0 | 0.00 | 0.00 | 0.00 | 69 | 1012.2 |
| 20260506205904 | 36 | 257 | 0.0 | 1.7 | 0.00 | 0.00 | 0.00 | 69 | 1012.2 |
| 20260506205404 | 36 | 257 | 0.0 | 2.6 | 0.00 | 0.00 | 0.00 | 68 | 1012.2 |
| 20260506204905 | 36 | 263 | 0.9 | 5.2 | 0.00 | 0.00 | 0.00 | 67 | 1012.2 |
| 20260506204404 | 37 | 60 | 0.0 | 0.0 | 0.00 | 0.00 | 0.00 | 66 | 1012.1 |
| 20260506203904 | 37 | 60 | 0.9 | 1.7 | 0.00 | 0.00 | 0.00 | 65 | 1012.1 |
| 20260506203404 | 37 | 60 | 0.9 | 1.7 | 0.00 | 0.00 | 0.00 | 63 | 1012.1 |
| 20260506202904 | 38 | 60 | 0.0 | 0.0 | 0.00 | 0.00 | 0.00 | 60 | 1012.0 |
| 20260506201903 | 39 | 60 | 0.0 | 0.0 | 0.00 | 0.00 | 0.00 | 58 | 1012.1 |
| 20260506201404 | 40 | 60 | 0.0 | 0.0 | 0.00 | 0.00 | 0.00 | 57 | 1012.1 |
| 20260506200904 | 41 | 60 | 0.0 | 0.0 | 0.00 | 0.00 | 0.00 | 57 | 1012.2 |
| 20260506195904 | 41 | 60 | 0.9 | 0.9 | 0.00 | 0.00 | 0.00 | 54 | 1012.2 |
| 20260506195403 | 41 | 60 | 0.9 | 1.7 | 0.00 | 0.00 | 0.00 | 54 | 1012.1 |
| 20260506194404 | 43 | 60 | 0.9 | 2.6 | 0.00 | 0.00 | 0.00 | 48 | 1012.1 |
| 20260506193904 | 45 | 55 | 0.9 | 1.7 | 0.00 | 0.00 | 0.00 | 47 | 1012.1 |
| 20260506193404 | 45 | 55 | 0.0 | 0.0 | 0.00 | 0.00 | 0.00 | 44 | 1012.1 |
| 20260506192904 | 46 | 55 | 0.0 | 0.0 | 0.00 | 0.00 | 0.00 | 43 | 1012.0 |
| 20260506192405 | 46 | 55 | 0.9 | 0.9 | 0.00 | 0.00 | 0.00 | 42 | 1012.0 |
| 20260506191404 | 47 | 56 | 1.7 | 2.6 | 0.00 | 0.00 | 0.00 | 40 | 1011.9 |
| 20260506190904 | 48 | 56 | 0.9 | 2.6 | 0.00 | 0.00 | 0.00 | 40 | 1011.9 |
| 20260506190404 | 48 | 56 | 1.7 | 2.6 | 0.00 | 0.00 | 0.00 | 39 | 1011.9 |
| 20260506185904 | 48 | 55 | 1.7 | 2.6 | 0.00 | 0.00 | 0.00 | 38 | 1011.8 |
| 20260506185404 | 48 | 50 | 0.9 | 2.6 | 0.00 | 0.00 | 0.00 | 38 | 1011.9 |
| 20260506184904 | 48 | 50 | 0.9 | 2.6 | 0.00 | 0.00 | 0.00 | 40 | 1011.9 |
| 20260506184404 | 49 | 50 | 2.6 | 2.6 | 0.00 | 0.00 | 0.00 | 39 | 1011.9 |
| 20260506183404 | 49 | 49 | 1.7 | 2.6 | 0.00 | 0.00 | 0.00 | 39 | 1011.8 |
| 20260506182902 | 50 | 55 | 1.7 | 2.6 | 0.00 | 0.00 | 0.00 | 39 | 1011.7 |
| 20260506182403 | 50 | 62 | 1.7 | 2.6 | 0.00 | 0.00 | 0.00 | 38 | 1011.6 |
| 20260506181403 | 51 | 58 | 2.6 | 4.3 | 0.00 | 0.00 | 0.00 | 35 | 1011.6 |
| 20260506180903 | 51 | 54 | 2.6 | 4.3 | 0.00 | 0.00 | 0.00 | 35 | 1011.5 |
| 20260506180403 | 51 | 59 | 1.7 | 4.3 | 0.00 | 0.00 | 0.00 | 35 | 1011.5 |
| 20260506175904 | 52 | 32 | 1.7 | 2.6 | 0.00 | 0.00 | 0.00 | 34 | 1011.5 |
| 20260506175403 | 52 | 13 | 1.7 | 2.6 | 0.00 | 0.00 | 0.00 | 33 | 1011.5 |
| 20260506174903 | 52 | 19 | 2.6 | 5.2 | 0.00 | 0.00 | 0.00 | 34 | 1011.4 |
| 20260506174402 | 52 | 23 | 1.7 | 4.3 | 0.00 | 0.00 | 0.00 | 36 | 1011.2 |
| 20260506173904 | 52 | 31 | 1.7 | 6.1 | 0.00 | 0.00 | 0.00 | 36 | 1011.3 |
| 20260506173403 | 52 | 39 | 2.6 | 5.2 | 0.00 | 0.00 | 0.00 | 35 | 1011.3 |
| 20260506171903 | 53 | 48 | 3.5 | 7.8 | 0.00 | 0.00 | 0.00 | 33 | 1011.3 |
| 20260506171403 | 53 | 40 | 3.5 | 8.7 | 0.00 | 0.00 | 0.00 | 34 | 1011.3 |
| 20260506170903 | 53 | 41 | 6.1 | 10.4 | 0.00 | 0.00 | 0.00 | 32 | 1011.2 |
| 20260506170403 | 54 | 47 | 6.1 | 10.4 | 0.00 | 0.00 | 0.00 | 32 | 1011.2 |
| 20260506165903 | 55 | 37 | 2.6 | 4.3 | 0.00 | 0.00 | 0.00 | 31 | 1011.2 |
| 20260506164904 | 55 | 10 | 3.5 | 6.1 | 0.00 | 0.00 | 0.00 | 32 | 1011.2 |
| 20260506164403 | 55 | 13 | 3.5 | 7.0 | 0.00 | 0.00 | 0.00 | 31 | 1011.2 |
| 20260506163903 | 55 | 19 | 1.7 | 7.0 | 0.00 | 0.00 | 0.00 | 33 | 1011.2 |
| 20260506163403 | 55 | 19 | 5.2 | 8.7 | 0.00 | 0.00 | 0.00 | 32 | 1011.2 |
| 20260506162904 | 55 | 4 | 3.5 | 6.1 | 0.00 | 0.00 | 0.00 | 31 | 1011.2 |
| 20260506162403 | 55 | 18 | 3.5 | 7.0 | 0.00 | 0.00 | 0.00 | 31 | 1011.3 |
| 20260506161903 | 56 | 2 | 4.3 | 10.4 | 0.00 | 0.00 | 0.00 | 32 | 1011.3 |
| 20260506161403 | 55 | 340 | 2.6 | 7.8 | 0.00 | 0.00 | 0.00 | 32 | 1011.3 |
| 20260506160902 | 55 | 353 | 2.6 | 8.7 | 0.00 | 0.00 | 0.00 | 33 | 1011.3 |
| 20260506160403 | 55 | 337 | 2.6 | 7.8 | 0.00 | 0.00 | 0.00 | 32 | 1011.3 |
| 20260506155903 | 55 | 351 | 4.3 | 8.7 | 0.00 | 0.00 | 0.00 | 32 | 1011.2 |
| 20260506154903 | 55 | 336 | 4.3 | 7.8 | 0.00 | 0.00 | 0.00 | 32 | 1011.3 |
| 20260506154402 | 55 | 350 | 3.5 | 8.7 | 0.00 | 0.00 | 0.00 | 33 | 1011.2 |
| 20260506153903 | 55 | 8 | 3.5 | 10.4 | 0.00 | 0.00 | 0.00 | 34 | 1011.2 |
| 20260506153403 | 55 | 2 | 5.2 | 12.2 | 0.00 | 0.00 | 0.00 | 33 | 1011.2 |
| 20260506152903 | 55 | 13 | 2.6 | 10.4 | 0.00 | 0.00 | 0.00 | 34 | 1011.2 |
| 20260506152403 | 54 | 9 | 4.3 | 8.7 | 0.00 | 0.00 | 0.00 | 33 | 1011.3 |
| 20260506151403 | 55 | 18 | 5.2 | 10.4 | 0.00 | 0.00 | 0.00 | 32 | 1011.4 |
| 20260506150903 | 55 | 354 | 5.2 | 12.2 | 0.00 | 0.00 | 0.00 | 34 | 1011.4 |
| 20260506150403 | 55 | 353 | 6.1 | 12.2 | 0.00 | 0.00 | 0.00 | 32 | 1011.5 |
| 20260506145903 | 55 | 356 | 5.2 | 13.0 | 0.00 | 0.00 | 0.00 | 33 | 1011.6 |
| 20260506145403 | 55 | 347 | 5.2 | 10.4 | 0.00 | 0.00 | 0.00 | 32 | 1011.6 |
| 20260506144903 | 55 | 357 | 4.3 | 8.7 | 0.00 | 0.00 | 0.00 | 35 | 1011.7 |
| 20260506144403 | 55 | 3 | 7.0 | 12.2 | 0.00 | 0.00 | 0.00 | 34 | 1011.7 |
| 20260506143903 | 55 | 7 | 6.1 | 10.4 | 0.00 | 0.00 | 0.00 | 30 | 1011.8 |
| 20260506143403 | 55 | 3 | 6.1 | 8.7 | 0.00 | 0.00 | 0.00 | 33 | 1011.7 |
| 20260506142402 | 55 | 343 | 5.2 | 11.3 | 0.00 | 0.00 | 0.00 | 33 | 1011.7 |
| 20260506141902 | 55 | 345 | 5.2 | 10.4 | 0.00 | 0.00 | 0.00 | 34 | 1011.6 |
| 20260506140904 | 55 | 351 | 6.1 | 12.2 | 0.00 | 0.00 | 0.00 | 30 | 1011.7 |
| 20260506135903 | 56 | 335 | 5.2 | 11.3 | 0.00 | 0.00 | 0.00 | 32 | 1011.8 |
| 20260506134903 | 56 | 359 | 4.3 | 13.0 | 0.00 | 0.00 | 0.00 | 35 | 1012.0 |
| 20260506132903 | 57 | 328 | 2.6 | 6.1 | 0.00 | 0.00 | 0.00 | 26 | 1011.9 |
| 20260506132403 | 58 | 277 | 1.7 | 7.0 | 0.00 | 0.00 | 0.00 | 27 | 1012.0 |
| 20260506131903 | 57 | 273 | 2.6 | 5.2 | 0.00 | 0.00 | 0.00 | 22 | 1012.1 |
| 20260506131403 | 57 | 176 | 2.6 | 5.2 | 0.00 | 0.00 | 0.00 | 22 | 1012.2 |
| 20260506130903 | 58 | 201 | 4.3 | 7.0 | 0.00 | 0.00 | 0.00 | 24 | 1012.4 |
| 20260506130403 | 57 | 262 | 2.6 | 5.2 | 0.00 | 0.00 | 0.00 | 26 | 1012.4 |
| 20260506125903 | 57 | 143 | 2.6 | 7.8 | 0.00 | 0.00 | 0.00 | 21 | 1012.5 |
| 20260506125403 | 58 | 196 | 6.1 | 10.4 | 0.00 | 0.00 | 0.00 | 21 | 1012.5 |
| 20260506124903 | 57 | 225 | 5.2 | 7.8 | 0.00 | 0.00 | 0.00 | 21 | 1012.4 |
| 20260506124404 | 58 | 227 | 6.1 | 10.4 | 0.00 | 0.00 | 0.00 | 21 | 1012.4 |
| 20260506123903 | 58 | 157 | 7.0 | 10.4 | 0.00 | 0.00 | 0.00 | 20 | 1012.4 |
| 20260506123403 | 58 | 176 | 7.8 | 12.2 | 0.00 | 0.00 | 0.00 | 20 | 1012.5 |
| 20260506122903 | 57 | 202 | 6.1 | 8.7 | 0.00 | 0.00 | 0.00 | 24 | 1012.6 |
| 20260506122403 | 56 | 64 | 0.9 | 5.2 | 0.00 | 0.00 | 0.00 | 29 | 1012.6 |
| 20260506120903 | 56 | 18 | 0.9 | 2.6 | 0.00 | 0.00 | 0.00 | 27 | 1012.8 |
| 20260506115903 | 56 | 116 | 3.5 | 8.7 | 0.00 | 0.00 | 0.00 | 23 | 1012.9 |
| 20260506115404 | 56 | 130 | 8.7 | 12.2 | 0.00 | 0.00 | 0.00 | 22 | 1012.8 |
| 20260506114903 | 56 | 137 | 6.1 | 11.3 | 0.00 | 0.00 | 0.00 | 23 | 1012.8 |
| 20260506114403 | 56 | 166 | 2.6 | 7.8 | 0.00 | 0.00 | 0.00 | 26 | 1012.8 |
| 20260506113903 | 56 | 131 | 5.2 | 10.4 | 0.00 | 0.00 | 0.00 | 23 | 1012.9 |
| 20260506113402 | 57 | 71 | 3.5 | 7.8 | 0.00 | 0.00 | 0.00 | 23 | 1012.8 |
| 20260506112902 | 57 | 158 | 6.1 | 11.3 | 0.00 | 0.00 | 0.00 | 24 | 1012.8 |
| 20260506112403 | 56 | 129 | 8.7 | 11.3 | 0.00 | 0.00 | 0.00 | 25 | 1012.7 |
| 20260506111904 | 55 | 50 | 7.8 | 10.4 | 0.00 | 0.00 | 0.00 | 27 | 1012.8 |
| 20260506111404 | 55 | 63 | 6.1 | 13.0 | 0.00 | 0.00 | 0.00 | 25 | 1012.9 |
| 20260506105904 | 55 | 60 | 5.2 | 7.0 | 0.00 | 0.00 | 0.00 | 26 | 1013.1 |
| 20260506105403 | 55 | 172 | 0.9 | 5.2 | 0.00 | 0.00 | 0.00 | 25 | 1013.0 |
| 20260506104904 | 56 | 181 | 5.2 | 10.4 | 0.00 | 0.00 | 0.00 | 24 | 1013.1 |
| 20260506104403 | 56 | 94 | 9.6 | 13.9 | 0.00 | 0.00 | 0.00 | 26 | 1013.2 |
| 20260506103403 | 54 | 62 | 4.3 | 10.4 | 0.00 | 0.00 | 0.00 | 25 | 1013.2 |
| 20260506102903 | 54 | 145 | 6.1 | 11.3 | 0.00 | 0.00 | 0.00 | 25 | 1013.2 |
| 20260506102404 | 55 | 134 | 2.6 | 11.3 | 0.00 | 0.00 | 0.00 | 27 | 1013.2 |
| 20260506101903 | 55 | 70 | 7.8 | 10.4 | 0.00 | 0.00 | 0.00 | 26 | 1013.3 |
| 20260506101403 | 55 | 103 | 5.2 | 7.8 | 0.00 | 0.00 | 0.00 | 25 | 1013.5 |
| 20260506100903 | 55 | 224 | 4.3 | 7.0 | 0.00 | 0.00 | 0.00 | 28 | 1013.4 |
| 20260506100403 | 55 | 87 | 6.1 | 8.7 | 0.00 | 0.00 | 0.00 | 26 | 1013.5 |
| 20260506095903 | 54 | 121 | 2.6 | 5.2 | 0.00 | 0.00 | 0.00 | 27 | 1013.5 |
| 20260506094403 | 54 | 167 | 6.1 | 11.3 | 0.00 | 0.00 | 0.00 | 26 | 1013.4 |
| 20260506093903 | 54 | 103 | 4.3 | 11.3 | 0.00 | 0.00 | 0.00 | 29 | 1013.4 |
| 20260506093403 | 53 | 82 | 7.0 | 10.4 | 0.00 | 0.00 | 0.00 | 27 | 1013.4 |
| 20260506092903 | 53 | 95 | 1.7 | 5.2 | 0.00 | 0.00 | 0.00 | 29 | 1013.4 |
| 20260506091904 | 53 | 119 | 5.2 | 7.8 | 0.00 | 0.00 | 0.00 | 27 | 1013.5 |
| 20260506091404 | 53 | 156 | 5.2 | 10.4 | 0.00 | 0.00 | 0.00 | 26 | 1013.4 |
| 20260506085903 | 53 | 172 | 6.1 | 10.4 | 0.00 | 0.00 | 0.00 | 25 | 1013.5 |
| 20260506085405 | 52 | 110 | 6.1 | 11.3 | 0.00 | 0.00 | 0.00 | 29 | 1013.5 |
| 20260506084903 | 52 | 126 | 4.3 | 7.8 | 0.00 | 0.00 | 0.00 | 29 | 1013.5 |
| 20260506084403 | 52 | 161 | 3.5 | 7.8 | 0.00 | 0.00 | 0.00 | 26 | 1013.6 |
| 20260506083403 | 52 | 173 | 7.8 | 15.6 | 0.00 | 0.00 | 0.00 | 31 | 1013.6 |
| 20260506082404 | 52 | 100 | 6.1 | 10.4 | 0.00 | 0.00 | 0.00 | 31 | 1013.7 |
| 20260506080903 | 51 | 164 | 6.1 | 11.3 | 0.00 | 0.00 | 0.00 | 32 | 1013.6 |
| 20260506080403 | 51 | 170 | 3.5 | 7.8 | 0.00 | 0.00 | 0.00 | 33 | 1013.6 |
| 20260506072403 | 50 | 143 | 6.1 | 10.4 | 0.00 | 0.00 | 0.00 | 37 | 1013.5 |
| 20260506071903 | 50 | 137 | 7.0 | 10.4 | 0.00 | 0.00 | 0.00 | 38 | 1013.4 |
| 20260506071403 | 50 | 150 | 4.3 | 10.4 | 0.00 | 0.00 | 0.00 | 40 | 1013.5 |
| 20260506070403 | 49 | 136 | 6.1 | 10.4 | 0.00 | 0.00 | 0.00 | 41 | 1013.4 |
| 20260506062404 | 46 | 137 | 4.3 | 7.0 | 0.00 | 0.00 | 0.00 | 50 | 1013.5 |
| 20260506061903 | 46 | 143 | 5.2 | 7.8 | 0.00 | 0.00 | 0.00 | 52 | 1013.5 |
| 20260506061404 | 45 | 149 | 2.6 | 5.2 | 0.00 | 0.00 | 0.00 | 54 | 1013.5 |
| 20260506050903 | 37 | 63 | 0.9 | 1.7 | 0.00 | 0.00 | 0.00 | 76 | 1013.7 |
| 20260506044403 | 33 | 63 | 1.7 | 1.7 | 0.00 | 0.00 | 0.00 | 83 | 1013.4 |
| 20260506043404 | 31 | 63 | 0.0 | 0.0 | 0.00 | 0.00 | 0.00 | 86 | 1013.4 |
| 20260506042903 | 30 | 63 | 0.0 | 0.0 | 0.00 | 0.00 | 0.00 | 86 | 1013.5 |
| 20260506042404 | 29 | 63 | 0.0 | 0.9 | 0.00 | 0.00 | 0.00 | 85 | 1013.5 |
| 20260506041903 | 29 | 63 | 0.0 | 0.9 | 0.00 | 0.00 | 0.00 | 85 | 1013.5 |
| 20260506041403 | 29 | 63 | 0.9 | 1.7 | 0.00 | 0.00 | 0.00 | 85 | 1013.4 |
| 20260506040903 | 28 | 63 | 1.7 | 2.6 | 0.00 | 0.00 | 0.00 | 86 | 1013.5 |
| 20260506040404 | 28 | 63 | 1.7 | 2.6 | 0.00 | 0.00 | 0.00 | 86 | 1013.4 |
| 20260506035904 | 27 | 78 | 1.7 | 2.6 | 0.00 | 0.00 | 0.00 | 86 | 1013.4 |
| 20260506035403 | 26 | 95 | 0.0 | 1.7 | 0.00 | 0.00 | 0.00 | 86 | 1013.4 |
| 20260506034904 | 25 | 95 | 0.0 | 0.0 | 0.00 | 0.00 | 0.00 | 85 | 1013.4 |
| 20260506034404 | 25 | 95 | 0.0 | 0.0 | 0.00 | 0.00 | 0.00 | 85 | 1013.4 |
| 20260506033904 | 25 | 95 | 0.0 | 0.0 | 0.00 | 0.00 | 0.00 | 85 | 1013.4 |
| 20260506033404 | 25 | 95 | 0.0 | 0.9 | 0.00 | 0.00 | 0.00 | 85 | 1013.4 |
| 20260506032903 | 25 | 95 | 0.9 | 2.6 | 0.00 | 0.00 | 0.00 | 84 | 1013.4 |
| 20260506031905 | 26 | 95 | 0.9 | 1.7 | 0.00 | 0.00 | 0.00 | 84 | 1013.3 |
| 20260506031404 | 26 | 95 | 1.7 | 2.6 | 0.00 | 0.00 | 0.00 | 83 | 1013.3 |
| 20260506030903 | 26 | 95 | 1.7 | 2.6 | 0.00 | 0.00 | 0.00 | 83 | 1013.3 |
| 20260506030404 | 26 | 95 | 1.7 | 2.6 | 0.00 | 0.00 | 0.00 | 83 | 1013.3 |
| 20260506025903 | 26 | 95 | 0.9 | 2.6 | 0.00 | 0.00 | 0.00 | 82 | 1013.3 |
| 20260506025403 | 26 | 131 | 0.9 | 1.7 | 0.00 | 0.00 | 0.00 | 82 | 1013.3 |
| 20260506024904 | 27 | 131 | 1.7 | 2.6 | 0.00 | 0.00 | 0.00 | 83 | 1013.3 |
| 20260506024404 | 27 | 148 | 1.7 | 2.6 | 0.00 | 0.00 | 0.00 | 84 | 1013.3 |
| 20260506023904 | 26 | 153 | 0.0 | 1.7 | 0.00 | 0.00 | 0.00 | 85 | 1013.3 |
| 20260506023403 | 26 | 154 | 2.6 | 4.3 | 0.00 | 0.00 | 0.00 | 85 | 1013.3 |
| 20260506022403 | 25 | 69 | 0.9 | 1.7 | 0.00 | 0.00 | 0.00 | 84 | 1013.1 |
| 20260506021904 | 25 | 69 | 0.9 | 1.7 | 0.00 | 0.00 | 0.00 | 84 | 1013.1 |
| 20260506021403 | 25 | 69 | 0.9 | 2.6 | 0.00 | 0.00 | 0.00 | 84 | 1013.1 |
| 20260506020404 | 25 | 69 | 1.7 | 2.6 | 0.00 | 0.00 | 0.00 | 84 | 1013.1 |
| 20260506015903 | 25 | 69 | 1.7 | 2.6 | 0.00 | 0.00 | 0.00 | 83 | 1013.0 |
| 20260506014904 | 25 | 69 | 1.7 | 2.6 | 0.00 | 0.00 | 0.00 | 82 | 1012.9 |
| 20260506014403 | 25 | 89 | 1.7 | 2.6 | 0.00 | 0.00 | 0.00 | 83 | 1012.9 |
| 20260506013903 | 25 | 89 | 0.9 | 2.6 | 0.00 | 0.00 | 0.00 | 82 | 1013.0 |
| 20260506013404 | 25 | 89 | 1.7 | 2.6 | 0.00 | 0.00 | 0.00 | 83 | 1013.0 |
| 20260506012903 | 25 | 89 | 2.6 | 2.6 | 0.00 | 0.00 | 0.00 | 82 | 1013.0 |
| 20260506012404 | 25 | 89 | 1.7 | 2.6 | 0.00 | 0.00 | 0.00 | 82 | 1013.0 |
| 20260506011403 | 26 | 74 | 0.0 | 0.0 | 0.00 | 0.00 | 0.00 | 82 | 1012.9 |
| 20260506010903 | 26 | 74 | 0.0 | 0.9 | 0.00 | 0.00 | 0.00 | 82 | 1012.8 |
| 20260506010403 | 26 | 74 | 0.0 | 0.9 | 0.00 | 0.00 | 0.00 | 81 | 1012.8 |
| 20260506005904 | 26 | 74 | 0.9 | 1.7 | 0.00 | 0.00 | 0.00 | 81 | 1012.8 |
| 20260506004903 | 26 | 74 | 0.9 | 1.7 | 0.00 | 0.00 | 0.00 | 81 | 1012.8 |
| 20260506004403 | 26 | 56 | 0.9 | 1.7 | 0.00 | 0.00 | 0.00 | 80 | 1012.7 |
| 20260506003905 | 27 | 56 | 0.9 | 1.7 | 0.00 | 0.00 | 0.00 | 80 | 1012.8 |
| 20260506003404 | 27 | 56 | 0.9 | 1.7 | 0.00 | 0.00 | 0.00 | 80 | 1012.8 |
| 20260506002903 | 27 | 56 | 0.0 | 0.0 | 0.00 | 0.00 | 0.00 | 79 | 1012.8 |
| 20260506002403 | 27 | 56 | 0.9 | 1.7 | 0.00 | 0.00 | 0.00 | 79 | 1012.8 |
| 20260506001904 | 28 | 56 | 0.0 | 0.9 | 0.00 | 0.00 | 0.00 | 80 | 1012.8 |
| 20260506001403 | 28 | 56 | 0.9 | 1.7 | 0.00 | 0.00 | 0.00 | 80 | 1012.8 |
| 20260506000903 | 28 | 56 | 1.7 | 2.6 | 0.00 | 0.00 | 0.00 | 80 | 1012.8 |
| 20260506000404 | 27 | 56 | 2.6 | 2.6 | 0.00 | 0.00 | 0.00 | 80 | 1012.9 |
| 20260505235904 | 27 | 59 | 1.7 | 2.6 | 0.00 | 0.00 | 0.00 | 79 | 1012.8 |
| 20260505235404 | 27 | 73 | 1.7 | 2.6 | 0.00 | 0.00 | 0.00 | 77 | 1012.8 |
| 20260505234904 | 27 | 73 | 1.7 | 2.6 | 0.00 | 0.00 | 0.00 | 76 | 1012.8 |
| 20260505233404 | 28 | 73 | 0.9 | 1.7 | 0.00 | 0.00 | 0.00 | 74 | 1012.9 |
| 20260505232904 | 28 | 73 | 1.7 | 2.6 | 0.00 | 0.00 | 0.00 | 73 | 1013.0 |
| 20260505231904 | 29 | 82 | 0.9 | 1.7 | 0.00 | 0.00 | 0.00 | 73 | 1013.0 |
| 20260505230403 | 30 | 82 | 1.7 | 2.6 | 0.00 | 0.00 | 0.00 | 72 | 1013.1 |
| 20260505225904 | 30 | 75 | 1.7 | 2.6 | 0.00 | 0.00 | 0.00 | 72 | 1013.0 |
| 20260505225404 | 30 | 75 | 0.9 | 1.7 | 0.00 | 0.00 | 0.00 | 72 | 1013.0 |
| 20260505224903 | 30 | 74 | 0.9 | 1.7 | 0.00 | 0.00 | 0.00 | 71 | 1013.0 |
| 20260505224404 | 30 | 74 | 0.9 | 2.6 | 0.00 | 0.00 | 0.00 | 71 | 1013.0 |
| 20260505223904 | 31 | 66 | 1.7 | 2.6 | 0.00 | 0.00 | 0.00 | 71 | 1013.1 |
| 20260505223404 | 31 | 101 | 1.7 | 2.6 | 0.00 | 0.00 | 0.00 | 71 | 1013.1 |
| 20260505222904 | 31 | 103 | 1.7 | 2.6 | 0.00 | 0.00 | 0.00 | 71 | 1013.1 |